Flag for Germany Weather past 2 weeks in Melle, Lower Saxony, Germany

Now
57 °F

Sunny.


Feels Like: 57 °F
Forecast: 38 / 61 °F
Wind: 3 mph from Southeast

Location: Muenster / Osnabrueck


UV Index: 3 (Moderate)

Visibility: 10 mi


Pressure: 30.36 "Hg

Humidity: 39%

Dew point: 32 °F

Location of MelleLocation

Historic Weather in Melle

°F

Melle temperature yesterday

Maximum temperature yesterday: 48 °F (at 1:20 PM)
Minimum temperature yesterday: 37 °F (at 11:50 PM)
Average temperature yesterday: 44 °F

Past Weeks' High & Low Weather Summary

 TemperatureHumidityPressure
High73 °F (Apr 3, 3:20 PM)100% (Apr 2, 3:20 AM)30.48 "Hg (Apr 2, 3:20 AM)
Low28 °F (Apr 16, 6:20 AM)31% (Apr 2, 4:50 PM)29.59 "Hg (Apr 3, 3:20 PM)
Average52 °F75%29.99 "Hg
* Reported Apr 1 6:20 PM — Apr 16 6:50 PM, Melle, Weather by CustomWeather, © 2014

Note: Actual official high and low records may vary slightly from our data, if they occured in-between our weather recording intervals... More about our weather records

Advertising

Historic Weather Conditions — Data for Previous 24 hours

 ConditionsComfort  
Time TempWeatherWind HumidityBarometerVisibility
6:50 PM
Apr 16
57 °FPassing clouds.5 mph41%30.36 "HgN/A
6:20 PM57 °FPassing clouds.6 mph41%30.36 "HgN/A
5:50 PM57 °FSunny.3 mph41%30.39 "Hg10 mi
5:20 PM57 °FSunny.3 mph39%30.39 "Hg10 mi
4:50 PM57 °FSunny.2 mph31%30.39 "Hg10 mi
4:20 PM57 °FPassing clouds.5 mph36%30.39 "HgN/A
3:50 PM57 °FSunny.2 mph36%30.42 "Hg10 mi
3:20 PM57 °FSunny.3 mph48%30.42 "Hg10 mi
2:50 PM55 °FSunny.6 mph38%30.42 "Hg10 mi
2:20 PM55 °FPassing clouds.5 mph44%30.42 "HgN/A
1:50 PM55 °FSunny.6 mph44%30.45 "Hg10 mi
1:20 PM54 °FSunny.2 mph51%30.45 "Hg10 mi
12:50 PM54 °FSunny.2 mph44%30.45 "Hg10 mi
12:20 PM52 °FSunny.2 mph47%30.45 "Hg10 mi
11:50 AM50 °FSunny.3 mph50%30.45 "Hg10 mi
11:20 AM50 °FSunny.2 mph54%30.45 "Hg10 mi
10:50 AM48 °FSunny.3 mph66%30.48 "Hg10 mi
10:20 AM46 °FSunny.5 mph71%30.48 "Hg10 mi
9:50 AM45 °FSunny.5 mph76%30.45 "Hg10 mi
9:20 AM45 °FSunny.3 mph76%30.45 "Hg10 mi
8:50 AM39 °FSunny.2 mph93%30.45 "Hg10 mi
8:20 AM37 °FSunny.1 mph87%30.45 "Hg10 mi
7:50 AM32 °FSleet. Cloudy.1 mph100%30.45 "HgN/A
7:20 AM30 °FSleet. Overcast.2 mph100%30.42 "HgN/A
6:50 AM28 °FChilly.1 mph100%30.42 "HgN/A
6:20 AM28 °FChilly.1 mph100%30.42 "HgN/A
5:50 AM30 °FChilly.1 mph100%30.42 "HgN/A
5:20 AM30 °FFog.1 mph100%30.42 "HgN/A
4:50 AM30 °FFog.1 mph100%30.39 "HgN/A
4:20 AM30 °FFog.1 mph93%30.42 "HgN/A
3:50 AM30 °FFog.2 mph100%30.39 "HgN/A
3:20 AM32 °FClear.2 mph100%30.39 "Hg10 mi
2:50 AM32 °FClear.2 mph93%30.39 "Hg10 mi
12:50 AM34 °FClear.3 mph87%30.39 "Hg10 mi
12:20 AM37 °FClear.2 mph81%30.39 "Hg10 mi
11:50 PM
Apr 15
37 °FClear.2 mph81%30.36 "Hg10 mi
11:20 PM39 °FClear.3 mph75%30.36 "Hg10 mi
10:50 PM39 °FClear.3 mph75%30.36 "Hg10 mi
10:20 PM41 °FClear.6 mph70%30.36 "Hg10 mi
9:50 PM43 °FPassing clouds.5 mph66%30.36 "HgN/A
9:20 PM43 °FPassing clouds.7 mph66%30.33 "HgN/A
8:50 PM45 °FPartly sunny.8 mph61%30.33 "HgN/A
8:20 PM45 °FPartly sunny.8 mph61%30.33 "HgN/A
7:50 PM46 °FBroken clouds.7 mph62%30.30 "HgN/A
7:20 PM46 °FPartly sunny.10 mph57%30.30 "HgN/A
Weather by CustomWeather, © 2014

See weather overview